This demonstration page uses our WeatherBlox Daily Observations layout. Learn more.

Left ArrowRight Arrow

39.08367, -84.50855

Hourly Observations for September 27, 2015

Temp ( °F °C ) Dew Point ( °F °C ) Humidity (%) Winds ( mph kmh ) Pressure ( in mb ) Visibility ( mi km ) Precip ( " mm )
12:53 am 00:53 Cloudy 66 18.9 60 15.6 81 81 ENE 6 9 30.18 1022 10 16 0.00 0.00
1:53 am 01:53 Mostly Clear 66 18.9 60 15.6 81 81 E 7 11 30.17 1022 10 16 0.00 0.00
2:53 am 02:53 Clear 64 17.8 60 15.6 87 87 ENE 3 6 30.16 1021 10 16 0.00 0.00
3:53 am 03:53 Partly Cloudy 63 17.2 60 15.6 90 90 Calm 30.16 1021 10 16 0.00 0.00
4:53 am 04:53 Cloudy 64 17.8 60 15.6 87 87 Calm 30.15 1021 10 16 0.00 0.00
5:53 am 05:53 Mostly Cloudy 64 17.8 59 15 84 84 Calm 30.16 1021 10 16 0.00 0.00
6:53 am 06:53 Partly Cloudy 61 16.1 59 15 93 93 Calm 30.16 1021 10 16 0.00 0.00
7:53 am 07:53 Sunny 59 15 59 15 100 100 Calm 30.17 1022 10 16 0.00 0.00
8:53 am 08:53 Sunny 64 17.8 60 15.6 87 87 Calm 30.18 1022 10 16 0.00 0.00
9:53 am 09:53 Cloudy 67 19.4 59 15 76 76 ESE 7 11 30.19 1022 10 16 0.00 0.00
10:53 am 10:53 Cloudy 70 21.1 60 15.6 71 71 ESE 7 11 30.18 1022 10 16 0.00 0.00
11:53 am 11:53 Mostly Cloudy 73 22.8 61 16.1 66 66 ESE 8 13 30.17 1022 10 16 0.00 0.00
12:53 pm 12:53 Sunny 76 24.4 62 16.7 62 62 SE 8 13 30.16 1021 10 16 0.00 0.00
1:53 pm 13:53 Cloudy 77 25 62 16.7 60 60 SSW 7 11 30.13 1020 10 16 0.00 0.00
2:53 pm 14:53 Mostly Cloudy 78 25.6 63 17.2 60 60 S 7 11 30.10 1019 10 16 0.00 0.00
3:53 pm 15:53 Mostly Cloudy 79 26.1 63 17.2 58 58 S 7 11 30.08 1019 10 16 0.00 0.00
4:53 pm 16:53 Cloudy 78 25.6 63 17.2 60 60 SSE 6 9 30.07 1018 10 16 0.00 0.00
5:53 pm 17:53 Mostly Cloudy 77 25 63 17.2 62 62 SE 9 15 30.07 1018 10 16 0.00 0.00
6:53 pm 18:53 Mostly Cloudy 75 23.9 64 17.8 69 69 SE 7 11 30.07 1018 10 16 0.00 0.00
7:53 pm 19:53 Mostly Clear 73 22.8 64 17.8 74 74 SE 10 17 30.08 1019 10 16 0.00 0.00
8:53 pm 20:53 Clear 71 21.7 63 17.2 76 76 VRB 3 6 30.09 1019 10 16 0.00 0.00
9:53 pm 21:53 Clear 69 20.6 63 17.2 81 81 VRB 3 6 30.10 1019 10 16 0.00 0.00
10:53 pm 22:53 Clear 68 20 63 17.2 84 84 Calm 30.11 1020 10 16 0.00 0.00
11:53 pm 23:53 Clear 66 18.9 63 17.2 90 90 Calm 30.11 1020 10 16 0.00 0.00

Powered by AerisWeather